Location: Trebic
(49.2170°N, 15.8830°E)
Time: 11:19:20
(UTC+02:00)

Transit 4A - Pass Details

Date: 02 September 2019
Orbit: 865 x 980 km, 66.8° (Epoch: 18 September)

Event Time Altitude Azimuth Distance (km) Brightness Sun altitude
Rises 02:53:15 0° 315° (NW) 3,615 11.1 -27.3°
Reaches altitude 10° 02:56:30 10° 299° (WNW) 2,644 10.2 -27.0°
Enters shadow 02:57:20 13° 293° (WNW) 2,440 10.0 -26.9°
Maximum altitude 03:00:43 20° 255° (WSW) 2,004 - -26.6°
Drops below altitude 10° 03:04:50 10° 211° (SSW) 2,575 - -26.2°
Sets 03:07:58 0° 195° (SSW) 3,490 - -25.9°
